Theta_e
347 348 348 348 348 348 348 347 347 347 346 346 346 345 345 344 344 346 345 345 344 345 345 344 344 344 344 344 343 343 344 344 347 349 352 353 353 353 353 354 356 355 354 354 353 354 354 354 355 354 354 353 352 353 354 354 355 355 355 356 354 354 354 350 350 351 353 354 353 353 354 353 352 350 350 347 345 346 347 346 346 345 345 346 347
347 348 347 348 348 347 348 348 347 346 346 346 345 345 344 343 343 344 343 343 342 343 344 343 343 343 342 341 342 342 343 343 344 346 348 350 351 351 352 353 354 355 355 355 354 353 354 354 353 353 354 354 352 352 352 353 354 355 355 355 356 355 354 354 353 352 353 354 354 353 353 354 353 351 352 352 349 348 347 344 345 345 346 346 347
346 348 347 347 348 348 348 347 347 346 346 346 345 344 343 342 342 343 341 342 342 342 342 342 344 343 342 341 340 341 342 343 343 344 344 345 347 349 350 351 352 353 354 354 354 354 354 353 352 352 352 352 350 349 351 353 353 353 354 354 355 355 355 355 354 353 354 354 354 354 354 354 354 352 353 352 351 350 347 344 345 346 347 348 349
347 348 348 348 348 347 348 347 347 347 346 346 345 345 344 342 342 342 342 343 342 342 341 341 342 342 341 340 339 340 341 342 343 342 341 341 342 344 346 349 351 352 352 352 352 353 353 352 350 350 350 350 348 347 350 352 352 352 353 354 353 353 353 354 355 355 354 355 355 354 354 354 353 353 353 352 351 349 346 346 347 348 349 349 349
346 347 348 348 348 347 348 348 347 347 346 346 345 344 344 343 342 342 343 343 344 343 342 341 341 341 341 340 341 340 340 341 341 342 341 341 341 342 344 346 348 349 350 351 351 351 352 351 349 350 350 350 348 346 348 349 350 350 351 353 354 354 354 354 354 355 355 355 355 355 355 355 354 353 353 353 351 347 345 346 348 348 350 350 350
346 347 347 348 348 348 348 347 348 347 346 346 345 344 343 343 343 342 342 343 343 343 343 341 341 341 341 341 341 341 341 341 341 342 341 341 341 342 343 344 345 347 348 349 350 351 351 350 350 350 350 349 347 346 347 349 350 350 350 352 352 354 354 354 354 355 355 355 355 356 355 355 354 353 353 353 352 349 346 347 349 349 351 352 351
347 347 347 348 348 348 348 348 347 347 347 347 346 344 344 343 342 342 342 343 343 343 342 342 341 341 341 341 342 342 343 343 343 343 342 342 342 342 343 344 344 344 345 346 349 349 350 350 350 349 349 348 346 346 347 348 349 351 352 353 353 353 353 354 355 355 355 355 355 355 355 356 355 354 353 352 352 349 348 350 351 351 352 353 352
346 347 347 347 349 348 348 348 347 347 347 346 346 346 345 344 343 343 342 342 343 342 342 342 341 342 341 341 341 342 343 343 343 343 342 341 342 342 342 342 342 342 342 343 346 347 349 349 350 349 348 348 346 346 347 348 349 349 350 351 354 354 354 354 354 354 354 355 354 355 355 355 354 353 353 352 351 350 350 351 352 352 353 354 353
347 348 348 348 349 348 349 349 348 348 347 347 347 346 346 345 344 343 342 341 342 341 341 342 341 342 342 341 341 341 341 341 341 341 341 340 340 340 340 340 340 340 341 341 344 346 347 348 348 348 348 348 348 348 347 349 350 350 349 349 353 354 354 354 354 354 354 354 355 355 355 354 354 354 353 352 352 351 351 352 352 353 353 354 354
348 348 348 349 349 348 349 349 349 349 348 347 347 347 347 347 345 345 344 342 342 341 341 342 342 342 342 342 342 341 341 341 340 340 339 339 340 340 340 340 339 339 340 343 345 345 345 346 347 348 349 349 349 348 348 349 350 350 349 350 352 353 354 355 355 354 355 355 355 355 354 354 354 354 353 353 352 352 352 352 353 353 354 354 354
349 349 348 349 349 349 350 350 350 350 349 349 349 348 348 348 347 346 345 344 343 343 342 342 342 342 342 342 342 342 342 341 340 340 340 340 340 340 341 341 340 341 342 343 344 345 345 346 347 348 350 350 349 349 348 348 349 350 350 350 351 353 354 355 355 355 355 355 355 355 354 354 355 355 355 354 354 354 353 353 353 354 354 355 354
350 350 350 350 350 350 351 351 351 351 350 351 350 349 349 349 348 348 347 346 345 344 344 343 343 342 342 343 343 342 342 341 341 340 341 341 342 342 342 342 342 343 343 344 345 346 347 348 348 348 349 349 349 349 348 348 348 350 350 350 351 352 353 354 355 355 356 355 356 356 355 355 356 355 356 355 354 354 354 353 354 354 354 353 353
351 351 351 351 351 351 351 351 352 351 352 351 351 351 351 350 350 349 349 348 347 346 346 345 344 344 343 343 343 343 343 343 342 342 342 342 342 343 343 343 344 345 345 345 346 347 348 348 349 349 349 349 349 350 349 349 348 350 351 351 352 352 352 353 353 354 355 356 356 355 355 356 356 355 355 354 354 354 354 354 354 354 354 353 354
353 352 352 351 352 352 352 353 353 353 353 352 352 352 352 352 351 350 350 350 349 348 348 347 346 346 345 345 345 344 344 344 344 343 343 343 343 343 344 345 345 346 346 346 347 347 348 348 349 349 349 350 350 350 350 349 350 350 351 352 351 350 351 352 351 352 353 355 355 354 351 352 353 353 352 354 354 353 354 354 354 354 354 354 354
354 354 354 354 354 353 353 353 354 354 353 354 353 353 353 353 353 352 352 352 351 350 350 349 348 347 347 347 346 346 345 345 345 345 345 345 345 345 345 346 346 347 347 347 347 348 347 348 349 349 349 350 350 350 351 351 351 352 352 352 351 351 351 351 350 350 351 351 352 351 347 349 350 350 351 353 352 351 352 353 354 355 354 354 353
350 351 352 352 353 354 355 354 355 354 354 355 354 355 354 354 353 353 353 353 352 352 352 351 351 350 350 349 348 347 348 348 347 347 347 346 346 346 346 346 346 347 347 347 348 348 348 348 349 349 350 350 350 350 351 352 352 353 353 353 353 352 352 350 349 350 350 350 350 348 347 348 348 348 350 351 351 349 351 352 353 354 353 352 353
348 349 350 350 350 352 354 356 356 355 356 356 356 355 355 355 355 354 354 354 354 354 354 353 352 352 352 351 350 350 350 350 349 349 348 348 347 347 347 347 347 347 347 348 348 348 348 349 350 350 350 350 350 350 351 353 353 353 353 353 353 353 352 350 349 350 350 350 350 349 348 348 348 348 348 349 349 350 351 352 353 353 352 352 354
345 347 350 351 350 351 352 353 354 356 357 357 357 356 356 357 356 355 355 355 355 354 355 354 354 354 353 353 353 353 352 352 351 351 350 349 348 348 348 347 348 348 348 348 349 349 349 349 350 350 351 350 350 350 351 353 353 353 354 353 353 353 352 349 349 351 350 351 350 349 348 348 348 348 350 350 350 350 351 352 353 352 352 353 355
343 345 346 348 350 352 353 353 354 356 358 358 357 357 357 357 357 356 356 356 356 355 355 355 354 355 355 354 354 354 354 353 352 352 352 351 350 349 349 348 348 349 348 349 349 349 349 350 350 351 351 350 350 351 351 353 353 354 354 353 354 354 352 350 351 351 351 351 350 348 349 349 350 351 352 352 352 351 352 352 353 353 353 354 356
343 346 346 346 348 351 353 355 355 357 359 359 358 358 358 357 357 357 357 356 356 356 356 355 355 355 354 355 354 354 354 354 353 353 352 352 352 351 350 349 348 349 349 349 350 349 350 350 350 351 350 350 350 350 352 353 353 354 353 354 354 353 351 351 352 352 352 352 351 350 350 351 351 352 353 354 354 353 353 353 353 355 355 356 357
340 344 345 346 347 349 351 353 356 357 358 359 359 359 359 358 358 358 358 357 356 356 356 356 355 355 355 355 354 355 355 355 354 354 353 353 352 351 350 350 349 350 349 349 350 351 350 350 350 349 350 350 350 350 352 353 354 354 354 354 353 352 352 352 353 353 352 353 352 351 351 352 353 354 355 356 356 356 356 356 355 356 357 357 358
337 340 343 345 346 347 348 349 353 356 356 357 359 360 359 359 359 359 359 358 357 357 356 356 356 356 355 355 355 355 355 355 354 354 353 353 352 352 351 351 351 350 350 350 350 350 350 351 350 350 350 350 349 351 352 352 353 354 354 353 353 353 353 354 353 353 353 353 352 352 352 352 353 355 356 356 356 356 356 356 357 358 358 358 359
333 336 340 342 344 346 347 347 349 354 356 356 357 358 359 360 360 359 359 359 358 357 357 357 357 356 356 356 356 355 355 355 355 355 354 353 353 352 352 352 352 351 351 350 350 351 351 351 351 351 350 350 351 351 351 352 353 353 353 353 353 354 354 354 353 353 353 352 352 351 352 353 355 356 356 354 353 353 355 357 358 358 358 358 359
331 333 336 340 342 344 346 346 346 352 356 356 355 356 358 359 360 360 360 359 359 358 358 357 357 356 356 356 356 355 355 355 355 354 354 354 354 353 353 353 352 352 351 351 351 351 351 351 351 351 352 351 351 351 351 352 353 354 354 354 354 354 354 354 353 353 352 351 351 352 353 355 355 355 353 352 352 353 355 356 357 358 359 359 360
330 331 333 337 339 341 344 345 346 351 355 356 355 355 356 357 358 359 359 359 359 358 358 358 357 357 357 356 356 356 355 355 355 355 354 354 354 354 354 353 353 352 352 352 351 351 352 352 352 352 352 352 352 353 353 353 353 354 354 355 355 355 354 354 354 353 351 352 352 353 354 355 354 354 353 354 354 355 356 357 358 358 359 360 360
328 329 331 334 336 339 340 342 345 350 353 355 356 356 355 356 357 358 359 359 359 359 359 358 357 357 357 357 357 357 356 355 355 355 355 355 355 354 354 354 353 353 353 352 352 352 352 352 353 352 352 353 353 354 354 354 354 355 355 355 356 356 355 355 354 354 353 353 353 354 354 354 354 354 354 355 355 356 357 357 357 358 359 360 360
325 327 329 331 334 338 340 341 345 348 350 352 354 355 355 355 356 357 358 359 359 359 359 359 358 357 357 357 357 356 356 356 355 355 355 354 354 354 354 354 353 353 353 353 353 353 353 353 353 353 353 354 354 354 354 354 355 355 355 356 356 356 356 356 355 354 353 353 353 354 354 355 355 354 355 356 356 358 358 357 358 358 359 359 358
325 326 327 328 331 336 339 341 344 347 348 349 351 354 355 356 356 356 357 357 358 358 359 359 358 357 358 357 357 356 356 356 356 355 355 355 354 355 354 354 354 353 353 353 353 353 353 352 352 352 353 353 354 354 354 354 355 355 356 356 356 357 356 355 355 354 353 354 354 354 354 355 355 355 356 356 357 358 359 358 358 358 358 357 355
324 325 326 328 330 334 337 341 344 346 347 348 350 352 355 355 356 356 356 357 358 358 358 359 359 358 358 357 357 357 357 357 357 357 357 356 356 355 355 355 355 354 354 355 354 353 351 349 349 351 351 352 353 353 353 354 354 355 355 355 356 355 355 355 355 355 355 355 355 354 355 355 355 356 356 356 357 358 358 357 356 356 356 355 353
323 324 326 328 330 333 335 338 340 343 345 346 348 350 353 355 356 356 357 357 357 358 358 358 358 358 358 358 358 358 358 358 357 357 357 356 356 356 356 356 355 356 355 355 352 349 349 348 348 349 350 350 351 352 352 353 353 354 354 354 354 354 354 354 353 354 354 354 354 354 355 354 354 356 356 355 356 357 357 356 356 354 353 352 350
322 324 325 327 329 331 333 334 337 339 343 345 346 348 352 354 355 355 356 357 357 358 358 357 358 358 358 358 358 358 358 358 358 357 357 357 356 356 356 356 356 356 355 353 350 347 347 347 347 348 349 349 350 351 352 352 352 352 352 353 352 352 352 352 353 354 354 355 354 353 352 350 348 348 349 350 353 356 355 355 355 353 352 352 350
321 322 323 325 327 329 331 334 337 339 342 344 345 347 350 354 356 356 356 356 357 358 358 358 358 359 358 359 359 359 359 358 358 357 357 357 357 356 356 356 356 356 354 352 349 348 348 347 347 348 348 349 349 350 351 351 351 351 351 351 352 352 353 353 354 354 354 353 352 351 351 347 343 341 343 346 351 355 354 353 354 353 352 351 350
320 321 322 324 326 329 332 335 337 339 341 343 345 346 348 352 356 358 357 357 357 357 358 359 359 359 359 359 359 359 359 358 358 358 357 357 356 356 356 356 356 356 353 350 347 348 347 347 347 348 349 348 349 350 350 351 350 350 351 352 352 352 353 354 354 354 352 351 350 350 350 348 344 342 343 347 351 354 353 353 353 353 351 351 351
319 320 323 325 326 329 332 334 335 337 338 340 343 345 347 350 354 357 358 358 357 357 357 358 359 359 359 359 359 359 359 359 358 358 358 358 357 357 356 356 355 354 352 350 348 347 347 346 347 348 348 348 349 349 350 350 350 351 352 352 352 352 353 354 353 352 350 349 348 347 347 347 346 345 345 348 351 352 352 352 352 352 351 350 350
318 320 322 324 326 328 330 331 332 333 336 337 340 343 346 348 351 356 359 358 357 357 357 358 358 359 359 360 360 360 359 358 358 358 358 358 357 356 355 354 352 351 350 349 348 348 348 348 348 348 349 349 350 351 351 351 351 352 352 352 352 352 352 353 352 351 349 348 348 347 347 347 347 348 347 349 351 352 351 351 352 351 350 349 348
318 319 320 322 323 325 326 327 329 332 335 337 339 342 345 346 348 353 358 359 358 358 358 358 359 359 359 360 360 359 358 357 357 357 357 357 356 356 355 353 352 350 349 349 349 349 348 349 349 349 350 350 350 351 352 351 352 352 352 352 352 352 352 352 350 349 348 348 348 349 348 348 349 351 351 351 352 353 353 352 352 352 350 348 346
317 318 319 320 321 323 324 325 328 332 336 339 340 342 344 345 347 350 354 358 359 358 358 358 358 358 358 359 359 357 356 356 356 356 356 356 355 355 355 354 353 351 350 350 350 349 348 350 351 350 351 351 352 352 352 351 351 352 352 351 353 353 352 351 350 349 348 347 348 348 349 350 352 354 353 353 353 353 352 352 353 352 349 348 345
317 318 318 319 320 322 323 324 328 333 337 340 342 343 344 345 346 348 351 355 357 357 358 358 358 357 358 358 357 356 355 354 354 354 354 354 355 354 354 354 354 353 351 351 351 350 350 351 351 350 351 351 352 352 352 351 351 351 350 351 352 351 350 349 349 348 348 348 348 349 352 353 355 355 355 353 353 353 352 352 351 349 346 345 343
317 317 317 319 320 322 323 325 328 333 337 340 342 344 345 344 345 346 348 351 354 355 356 357 357 357 356 356 355 354 352 351 352 353 354 354 355 354 354 352 352 352 352 351 350 350 351 351 350 350 350 350 351 351 351 351 351 350 351 350 350 350 350 349 348 348 349 350 350 351 352 354 355 355 354 353 352 352 351 350 349 347 345 344 343
316 316 317 319 320 321 322 324 328 330 333 335 338 340 343 344 344 346 347 348 350 352 354 354 356 356 355 355 354 353 351 351 352 353 355 355 355 354 353 352 350 350 350 350 350 350 349 348 348 348 348 348 349 349 350 350 350 350 350 350 348 349 350 350 349 350 352 352 352 352 353 354 354 353 352 349 348 347 347 346 347 347 345 343 342
315 316 318 319 319 320 321 323 325 326 328 330 332 334 337 339 341 343 345 347 348 349 350 352 352 352 352 352 353 352 352 351 352 353 354 354 354 352 351 349 348 348 348 349 349 348 347 346 346 346 346 348 348 348 349 350 349 349 349 349 349 349 349 348 349 351 352 353 352 352 353 353 352 350 349 347 346 345 345 344 345 345 344 342 341
314 316 317 318 318 318 319 320 321 322 323 325 327 329 331 333 336 340 343 344 345 347 348 349 348 347 347 348 350 351 351 351 351 353 354 353 352 350 347 345 345 345 345 346 347 347 346 345 344 344 345 345 346 347 348 347 346 347 348 348 348 349 348 348 349 351 352 352 352 352 351 350 348 346 346 345 345 345 343 342 341 340 339 339 339
314 315 316 317 316 316 316 317 318 319 319 320 321 323 325 328 330 333 335 336 337 338 338 338 338 338 340 342 344 346 348 348 349 349 348 345 343 340 337 336 337 338 338 340 342 343 343 342 342 342 342 341 342 343 343 341 342 345 346 346 346 347 348 349 351 351 351 351 349 347 346 345 345 343 342 342 342 340 337 335 334 333 332 332 332
313 314 314 314 314 314 314 314 315 316 316 316 316 317 318 320 322 323 325 325 324 325 326 326 327 328 330 331 332 334 334 335 334 332 330 327 323 320 319 320 322 326 330 334 336 338 338 339 338 337 335 334 335 337 338 337 338 341 343 343 344 345 346 346 346 346 345 344 342 339 338 337 336 336 335 335 334 333 331 330 330 330 329 329 329
312 312 312 313 312 312 312 312 312 313 313 313 313 312 313 314 315 315 315 315 315 315 316 317 318 319 319 320 319 318 317 316 315 314 313 312 310 310 310 311 313 316 320 324 327 330 331 330 329 329 329 330 332 335 336 336 336 338 339 340 341 342 341 340 340 339 338 338 337 335 334 332 331 331 331 330 330 330 330 330 330 329 329 329 329
310 310 311 311 311 311 311 310 310 311 311 310 310 310 310 310 310 311 310 310 309 309 309 309 310 310 310 309 309 308 306 305 305 304 305 306 306 307 308 310 312 314 314 316 320 323 324 324 324 325 325 327 329 332 332 331 332 334 335 336 337 338 337 336 336 335 334 334 334 333 332 332 331 331 330 330 329 329 329 328 328 328 327 327 327
309 309 309 309 309 308 309 308 309 309 308 308 308 308 308 308 308 307 307 307 306 305 304 304 304 303 303 302 302 302 301 301 301 301 302 303 305 306 306 307 309 310 309 310 312 314 316 318 320 321 321 322 324 327 329 328 329 330 332 332 332 333 332 333 332 332 331 330 330 329 330 329 328 328 328 328 327 327 326 325 324 323 323 323 322
308 308 308 307 307 307 307 306 306 306 306 306 306 306 305 305 305 304 304 303 303 302 302 301 301 300 300 299 299 298 298 299 299 299 299 300 301 302 302 302 304 306 307 307 306 306 307 310 313 315 317 319 321 323 324 325 326 327 328 329 329 329 329 329 329 328 327 327 326 327 327 327 325 325 325 324 323 323 321 320 320 319 319 319 319
307 307 306 306 306 305 305 305 304 304 304 304 304 303 303 303 302 302 302 301 301 301 300 300 299 299 298 297 297 296 296 296 296 296 296 296 296 297 297 297 299 302 305 307 306 305 305 307 308 309 312 314 315 316 317 317 318 320 321 322 324 325 325 325 325 325 325 325 324 324 324 324 322 322 321 320 320 319 317 316 316 315 315 315 314
306 305 305 305 304 304 304 303 303 303 302 302 302 302 301 301 301 300 300 300 300 299 299 298 298 297 296 296 295 295 295 295 294 294 294 293 293 294 294 294 294 296 298 299 300 301 302 303 304 305 306 307 309 311 312 312 313 314 315 317 319 320 320 320 321 321 322 322 322 321 321 320 318 317 315 314 313 312 311 310 310 309 309 308 307
304 304 304 304 304 303 303 303 302 302 302 301 301 300 300 300 300 299 299 298 298 298 297 297 296 296 295 295 295 295 294 294 294 293 293 292 292 292 292 292 292 292 293 294 296 297 299 300 301 302 303 303 303 304 305 306 307 308 310 312 314 314 315 316 316 316 316 317 316 316 316 314 312 310 309 308 308 307 307 306 306 306 305 304 304
Wind_Speed
38 37 37 36 36 35 36 36 37 37 37 37 37 37 36 36 36 35 34 32 32 31 30 28 27 25 24 23 22 21 21 20 20 20 20 21 20 19 18 18 18 18 17 17 17 16 16 16 16 15 14 14 15 14 14 13 13 11 10 10 10 10 10 10 10 13 17 17 16 18 18 17 16 15 16 16 16 17 17 17 18 18 18 17 16
38 37 36 35 36 36 35 36 36 36 36 36 37 37 37 36 36 34 33 32 31 31 31 30 29 28 27 26 26 24 23 22 20 20 21 21 21 20 20 20 20 20 19 19 19 18 18 19 19 19 18 18 18 16 15 14 14 14 12 11 12 11 11 12 12 12 17 20 21 20 19 18 18 18 19 20 20 20 19 19 19 18 18 18 17
38 38 36 36 36 36 35 35 35 35 36 36 37 37 38 37 36 34 33 32 31 31 32 31 31 30 30 29 28 27 26 24 22 21 21 21 21 21 21 21 22 22 22 22 21 20 20 21 21 20 20 20 20 19 17 16 16 16 15 14 14 14 13 13 13 13 16 21 22 21 21 21 22 21 21 22 21 20 20 20 20 18 18 18 16
37 36 36 36 36 35 35 34 34 34 36 36 37 37 37 37 37 36 35 33 32 32 32 32 32 31 30 30 30 29 28 27 25 24 23 22 22 22 21 22 22 23 23 23 22 22 21 22 21 20 19 20 20 20 19 18 17 17 17 16 16 16 15 14 15 15 16 19 22 22 22 23 23 23 22 22 21 20 21 21 20 19 19 18 16
35 36 35 35 34 35 35 34 34 35 36 37 37 37 36 35 36 37 37 35 34 33 32 32 32 32 31 31 31 31 30 29 28 27 26 25 24 24 24 24 24 24 25 24 24 23 23 22 22 20 19 20 20 20 20 19 19 18 18 18 17 17 17 17 16 16 16 19 22 24 23 23 24 24 22 21 21 22 22 21 19 20 21 20 18
34 34 34 34 34 35 35 35 35 35 36 37 37 37 36 34 34 35 36 36 35 34 33 33 33 33 33 33 32 32 32 31 31 30 29 28 27 27 27 26 26 26 26 26 26 25 25 24 22 21 20 20 20 20 20 19 19 19 19 19 18 18 18 18 17 17 17 19 21 23 24 24 24 24 21 20 22 24 24 23 21 20 22 22 22
33 33 34 34 34 35 35 36 36 36 36 37 36 36 36 35 35 35 34 35 35 35 35 35 34 34 34 34 34 34 33 32 32 31 31 30 30 29 29 28 28 28 28 28 28 27 26 26 24 23 21 21 21 20 20 20 19 19 19 19 19 19 19 19 18 18 18 19 20 22 23 23 23 24 23 22 22 21 21 23 24 23 22 22 23
33 34 34 34 35 36 37 37 37 37 37 36 36 36 35 35 35 35 34 34 34 35 35 36 36 36 35 35 34 34 33 33 33 33 32 32 31 31 31 30 30 30 30 29 29 28 28 27 26 25 23 22 21 20 20 20 20 20 21 20 19 19 18 18 18 18 18 19 20 21 22 23 23 23 23 22 20 19 18 20 24 25 24 23 23
34 34 34 35 37 38 38 37 36 36 36 35 36 36 35 35 35 35 35 35 35 35 35 35 35 35 35 35 34 34 33 34 34 34 34 34 34 33 33 32 31 31 31 30 30 29 29 28 27 26 25 24 22 21 20 19 20 20 21 20 20 19 19 18 18 18 18 18 19 21 20 22 23 21 21 20 19 20 20 20 21 23 23 25 25
34 34 35 37 39 38 37 37 36 35 35 35 36 36 35 34 34 34 35 35 35 35 34 34 33 34 34 34 35 34 35 36 37 37 36 36 35 34 34 33 33 32 32 31 31 31 30 30 29 28 26 25 24 23 21 20 20 20 20 19 20 19 19 19 19 19 18 18 19 20 19 21 23 21 20 22 22 22 22 20 20 21 22 23 24
34 36 37 38 38 37 37 36 36 35 36 36 36 36 35 34 33 34 34 34 35 34 34 34 34 34 34 34 34 35 36 37 38 38 37 36 36 35 34 34 34 33 32 32 32 32 31 31 30 29 28 27 26 24 23 22 21 21 20 19 19 19 20 20 21 20 20 19 20 20 19 22 25 23 22 24 24 23 22 20 19 19 19 18 18
35 36 39 38 36 36 36 36 36 37 36 36 36 35 35 34 33 33 33 34 34 33 33 34 34 34 34 34 34 35 36 37 37 37 37 36 36 35 35 34 34 33 33 33 32 32 32 31 31 31 30 28 27 26 25 24 23 22 21 20 20 20 20 21 22 22 22 21 21 22 22 23 26 25 24 24 24 23 22 19 18 19 18 16 17
35 36 36 37 37 37 37 36 36 37 37 37 36 35 34 35 35 35 35 34 33 32 33 34 35 35 34 34 35 36 37 37 37 37 36 36 36 35 35 35 34 34 33 33 33 32 32 32 32 32 32 30 28 27 26 25 24 23 22 21 21 21 21 21 21 22 23 23 24 25 25 24 26 26 25 24 24 24 22 21 21 20 19 20 21
30 35 36 37 37 36 36 37 36 37 37 36 35 35 35 35 35 35 34 33 32 33 34 35 35 36 36 36 37 37 38 38 37 37 36 36 36 35 35 35 35 35 34 34 33 33 33 32 32 32 32 31 29 28 26 25 24 23 23 22 22 22 22 22 22 22 23 24 25 27 26 25 26 27 25 24 24 24 24 24 23 22 21 23 24
11 22 28 34 37 37 36 37 37 36 36 35 34 34 34 35 35 34 33 33 34 35 35 35 36 36 37 37 37 38 40 40 38 38 37 36 36 35 34 35 35 35 35 35 34 34 34 33 33 33 33 32 30 29 27 26 25 24 24 24 24 24 23 23 23 22 22 23 24 26 26 26 26 26 26 25 24 24 24 25 24 23 23 25 25
15 8 9 13 22 29 33 35 35 34 34 33 33 34 34 34 35 34 33 33 33 34 34 34 35 36 37 37 37 38 41 40 39 39 38 37 35 34 34 35 35 36 36 36 35 35 35 34 34 33 33 33 32 30 28 26 25 25 25 25 25 26 26 25 24 24 24 24 24 25 26 26 26 26 26 26 25 24 24 24 24 22 22 23 23
17 12 12 13 13 16 21 27 30 31 31 31 32 33 34 34 34 33 33 33 33 34 35 35 36 36 36 36 37 39 41 40 39 39 39 37 36 35 35 36 36 36 37 37 37 36 35 35 34 34 34 33 32 31 29 27 26 26 26 26 26 27 28 27 26 26 25 25 25 25 26 26 25 25 25 25 24 24 23 23 24 22 20 18 17
14 10 8 9 10 12 15 20 25 27 28 31 32 33 33 33 33 33 33 34 35 36 36 36 36 36 37 37 38 39 41 40 39 39 39 38 36 36 36 36 36 37 37 37 37 37 36 36 35 34 34 34 33 32 30 28 28 27 28 27 27 29 30 29 28 27 26 25 25 25 26 25 25 24 24 22 22 22 23 24 23 21 19 17 14
14 14 13 13 10 9 11 17 24 27 28 30 32 32 32 32 33 33 34 35 36 36 35 35 35 36 37 38 39 39 40 40 38 39 39 38 37 37 37 36 36 37 38 38 37 37 37 36 36 35 35 34 33 32 31 30 29 29 29 27 27 30 31 30 29 29 28 27 26 26 26 26 25 25 24 22 21 21 22 23 22 21 22 22 17
13 13 15 16 16 12 9 12 19 25 28 29 30 31 32 32 32 32 33 35 35 35 34 35 36 36 37 38 38 39 40 40 39 39 39 38 38 38 37 36 36 37 37 37 36 36 36 36 36 36 35 34 33 33 32 31 31 31 29 29 30 31 32 31 30 29 28 28 27 27 28 28 27 26 26 24 23 22 22 22 22 22 24 25 21
12 12 13 16 18 17 13 11 14 19 24 28 29 30 31 31 31 32 33 34 33 33 34 34 35 36 36 36 37 38 40 40 40 40 39 39 38 38 38 38 39 38 36 36 36 36 36 36 36 35 34 33 32 32 32 32 32 32 31 31 32 31 30 30 31 29 28 28 29 29 30 30 29 29 27 26 25 24 24 23 23 23 24 26 23
13 13 13 15 17 18 18 15 13 15 20 25 28 30 31 31 32 33 33 33 33 33 34 33 34 35 35 35 36 38 39 39 40 40 40 40 39 38 39 41 40 38 35 34 35 36 36 36 36 35 33 32 32 31 31 31 31 32 32 31 31 30 30 31 31 30 30 30 31 31 31 31 31 30 28 28 28 27 26 25 24 24 24 25 24
14 14 13 13 14 16 18 19 17 14 17 22 26 30 31 31 32 33 33 33 32 33 33 33 32 33 33 34 36 37 38 38 39 40 40 40 40 40 41 41 41 40 37 36 37 37 37 37 36 34 33 33 32 31 30 31 31 31 30 29 28 29 30 31 31 32 32 32 31 31 31 31 31 30 30 31 31 29 27 25 24 24 24 24 24
15 15 15 13 13 15 16 19 20 16 14 18 24 28 30 31 31 32 33 33 31 31 32 32 31 31 31 32 34 35 36 37 38 40 41 41 41 42 42 42 41 41 40 39 39 38 37 36 35 34 33 33 32 31 30 31 31 30 29 28 27 28 29 31 31 32 33 32 31 31 32 32 31 32 32 32 30 27 25 24 23 22 22 23 24
17 18 19 16 14 15 16 20 21 17 13 15 21 27 29 30 30 31 32 31 30 30 30 30 31 30 30 31 32 33 34 35 37 39 40 42 43 43 43 42 41 42 42 42 40 39 38 37 36 34 34 33 32 31 31 31 31 30 29 28 28 28 29 29 30 30 32 32 32 32 33 33 33 33 31 29 26 25 24 23 21 21 21 22 22
17 18 20 20 18 17 18 21 21 18 14 14 18 24 28 29 30 30 30 30 30 30 29 29 30 29 30 31 31 31 31 33 35 37 38 40 42 43 43 42 42 41 42 42 41 39 39 38 37 35 34 33 32 32 32 32 31 30 29 28 28 28 28 28 29 30 32 32 32 33 33 33 32 30 28 25 24 23 23 21 21 21 21 22 22
16 16 20 23 22 21 21 21 20 19 18 17 17 21 26 29 30 30 30 30 30 30 30 29 28 28 29 31 30 29 30 32 34 35 36 37 40 41 42 43 43 42 43 44 43 42 41 39 37 35 33 32 31 31 31 30 29 29 29 28 29 29 29 29 30 31 31 32 32 32 32 31 29 28 26 24 23 23 21 20 20 20 21 21 20
15 16 19 22 24 23 23 22 19 18 19 19 17 18 22 26 29 31 33 34 33 32 31 30 30 31 32 31 29 28 30 33 35 36 35 36 38 41 43 44 44 44 44 44 44 43 41 37 34 33 32 31 30 29 29 28 29 30 30 29 30 30 30 29 30 31 31 32 32 32 31 30 29 28 25 23 24 23 21 19 19 19 19 19 18
16 16 17 19 21 22 22 20 19 19 19 19 19 19 21 25 29 33 36 39 40 39 36 34 37 39 38 34 31 29 30 35 40 41 40 39 41 42 43 44 44 44 44 44 43 42 39 35 32 31 31 30 29 28 29 30 31 31 31 30 30 31 30 29 30 31 31 31 32 32 32 31 30 29 25 23 24 24 22 20 20 18 17 18 17
16 15 15 16 18 20 21 21 20 20 19 19 19 20 21 23 28 34 37 39 42 44 42 40 42 42 40 38 37 37 38 41 43 42 42 42 42 42 42 42 41 40 41 41 39 36 34 32 32 32 31 30 30 29 30 31 32 31 30 29 30 29 28 28 28 29 29 29 30 30 30 29 30 29 25 23 23 23 21 21 21 18 17 17 17
16 14 14 16 18 21 22 23 22 20 20 20 20 20 21 22 25 32 37 39 40 43 45 46 45 42 39 39 39 41 44 45 42 39 38 38 39 40 40 40 39 38 38 37 35 33 31 31 31 32 31 30 31 31 31 31 30 29 26 25 24 24 25 27 28 29 30 30 28 27 25 24 27 27 25 23 22 21 20 20 19 18 18 18 17
18 17 16 17 19 22 23 24 22 20 20 21 22 21 20 20 21 26 33 39 41 41 42 45 47 46 44 42 39 39 42 44 43 39 36 35 36 37 38 38 37 37 36 34 32 33 34 33 32 31 30 30 30 31 31 30 28 25 23 22 22 24 27 29 30 32 32 30 27 25 23 23 26 29 29 27 23 19 18 18 19 19 19 19 18
19 20 19 19 21 23 25 25 23 20 20 21 23 22 19 18 18 21 26 33 39 41 41 42 45 46 47 46 44 42 41 41 40 39 37 35 34 33 33 35 36 35 35 33 32 32 33 34 33 31 29 29 29 29 29 29 26 24 23 25 26 28 30 30 29 29 29 28 27 25 24 23 24 26 29 30 25 19 18 19 19 19 20 20 20
19 21 20 20 21 24 26 25 23 21 21 22 24 24 22 20 20 21 22 23 28 34 39 42 43 44 46 47 48 47 44 40 38 36 36 36 35 32 30 32 33 33 34 34 33 32 31 31 32 31 29 28 28 28 28 27 25 24 26 29 28 28 29 28 27 27 27 27 27 25 23 23 23 23 26 29 26 20 19 20 20 21 22 21 18
18 20 20 19 20 22 24 25 23 21 22 23 24 25 24 22 22 23 23 22 22 26 33 38 41 42 44 45 46 47 46 42 38 35 34 33 33 31 29 29 31 31 33 35 35 33 31 30 31 31 30 29 29 29 29 28 27 28 29 29 26 26 27 26 27 27 26 25 25 24 23 24 25 23 25 28 26 21 20 22 23 22 21 18 16
19 20 20 20 20 21 24 26 24 22 22 22 23 24 24 23 23 23 24 25 25 26 28 31 33 35 39 41 42 42 42 40 37 35 33 31 31 32 31 32 32 32 34 37 38 36 34 32 31 31 30 31 31 31 31 30 29 30 29 27 26 27 27 26 26 25 24 24 25 24 24 25 25 23 24 26 26 23 22 23 24 23 21 18 16
22 22 21 21 23 24 26 26 25 23 21 21 21 21 22 23 23 23 24 24 24 26 27 26 25 26 30 34 35 36 35 34 34 33 31 29 30 33 35 36 35 33 33 36 38 38 37 36 34 32 31 31 32 32 32 31 31 30 29 28 29 30 28 25 24 23 22 22 23 23 24 25 25 23 24 26 25 24 24 24 23 23 21 19 17
21 22 21 21 23 25 26 26 24 21 18 17 18 19 20 20 21 22 23 23 22 23 23 22 22 23 25 27 28 29 28 27 27 28 29 30 32 35 37 37 35 33 33 34 36 36 37 36 35 33 31 31 31 31 31 30 30 29 28 28 29 28 26 24 24 24 22 21 21 22 24 26 25 23 24 26 26 25 24 24 23 22 20 18 16
20 20 20 20 21 22 23 23 22 18 13 12 13 16 18 20 20 20 21 21 21 21 21 20 20 22 21 20 21 22 23 23 25 27 30 32 34 36 38 37 35 33 32 31 31 32 34 33 31 30 29 29 30 30 30 30 29 29 28 28 28 27 25 25 26 25 22 20 20 22 25 26 25 24 25 26 26 25 23 22 23 22 19 17 17
19 19 19 18 19 19 19 19 18 15 10 8 8 10 12 16 18 19 20 19 18 19 19 19 19 19 17 17 19 21 22 24 26 27 30 33 35 37 37 37 35 32 29 27 26 27 27 27 27 26 27 28 28 28 29 29 29 28 28 28 27 26 25 25 25 23 20 19 20 23 25 25 24 23 23 23 24 23 20 19 20 19 17 16 17
17 17 17 17 16 16 16 15 15 13 9 6 6 7 7 9 12 15 18 19 19 19 19 19 18 17 15 15 17 19 21 23 23 24 27 30 33 34 34 33 32 29 26 24 21 20 20 21 22 23 24 25 25 26 27 28 28 28 28 27 26 25 23 22 20 18 17 18 20 22 23 22 20 19 19 19 19 19 16 15 15 15 14 15 15
15 15 15 14 13 12 12 12 12 11 8 5 5 5 5 6 7 7 10 14 17 18 17 16 15 15 15 15 16 17 19 21 23 25 27 28 28 29 28 26 25 24 23 22 20 18 18 17 18 19 21 22 23 24 25 25 25 27 28 27 26 25 21 18 16 16 16 18 19 19 17 15 14 13 13 12 13 13 11 10 9 10 11 12 13
12 12 11 11 10 10 9 10 10 9 7 7 6 6 5 5 4 3 2 2 4 4 4 3 4 6 8 10 12 15 19 21 22 22 22 21 20 19 18 18 18 19 20 19 18 18 17 17 17 19 20 19 19 21 21 19 20 23 24 23 21 20 18 15 13 13 14 15 14 12 11 10 10 10 10 9 10 11 10 10 10 9 9 9 9
8 9 9 8 8 8 7 8 8 7 7 8 9 9 9 9 9 9 9 10 9 9 8 6 5 4 2 1 4 6 8 10 11 11 10 9 8 8 8 10 12 14 16 17 17 17 17 18 19 19 18 16 15 17 16 13 13 16 19 19 18 17 15 13 12 10 9 9 8 7 8 10 11 12 12 11 11 11 10 9 8 7 6 5 5
6 7 7 6 6 6 6 6 7 7 8 11 13 12 11 10 12 14 15 15 15 15 14 13 12 11 10 9 8 8 8 8 9 11 12 13 14 15 15 16 16 17 18 19 19 19 20 20 20 19 18 16 16 16 15 14 14 16 16 17 17 17 15 15 14 12 10 10 11 13 13 13 13 13 13 11 9 7 6 6 5 4 3 3 4
4 4 5 5 5 5 6 6 7 8 10 12 14 14 12 11 13 15 16 16 17 18 18 18 18 18 18 18 17 17 18 18 18 18 18 19 20 21 21 22 23 24 25 25 26 26 26 26 25 24 24 23 21 19 18 17 18 19 18 17 17 17 16 16 16 15 14 14 14 15 15 15 14 14 13 12 10 8 8 7 7 6 6 6 5
3 4 5 5 5 5 7 7 8 9 11 13 13 13 13 13 14 17 18 18 20 22 22 23 23 23 24 24 23 23 23 23 21 20 21 23 25 26 26 26 28 30 31 32 32 32 32 33 32 32 32 31 29 26 23 21 21 21 21 20 19 20 19 18 18 18 16 15 15 15 16 17 17 16 15 14 14 13 13 13 12 12 11 11 10
4 5 6 6 6 7 8 9 11 13 14 14 14 14 13 14 16 18 19 21 23 24 24 25 27 27 27 27 26 26 26 25 23 22 21 22 25 27 27 29 32 36 38 39 37 36 36 37 37 37 37 36 35 33 30 27 25 24 24 23 22 21 20 19 19 18 17 17 16 16 17 18 19 19 18 18 17 17 18 17 17 16 15 14 14
5 6 7 8 9 9 9 11 14 16 16 16 15 15 14 15 16 18 20 22 23 23 23 25 28 29 30 29 28 28 27 27 25 23 21 20 22 24 24 26 31 37 42 42 40 39 39 40 40 40 40 40 38 36 34 32 30 29 28 28 26 25 23 22 20 19 18 18 18 18 19 20 21 21 21 20 19 19 19 18 18 17 16 16 15
7 8 9 10 11 11 12 13 16 17 18 17 17 17 16 17 18 20 21 23 24 25 26 28 30 31 31 30 29 28 28 27 27 25 23 22 23 25 25 24 27 33 38 40 40 40 40 41 41 41 42 41 40 37 35 33 31 30 30 29 29 29 28 25 23 21 20 19 19 19 20 21 23 23 22 21 20 20 19 19 18 18 17 17 17
8 9 10 12 13 14 15 16 18 19 19 20 20 19 18 19 21 23 24 25 27 28 29 30 32 33 32 30 29 27 26 27 29 30 29 26 27 31 32 29 27 29 34 35 37 40 42 41 42 42 42 41 39 37 34 32 30 29 29 28 28 29 28 26 24 22 21 20 20 20 21 22 23 23 23 21 21 20 20 19 19 20 20 20 20
Wind_Direction
208 210 211 211 212 213 215 216 218 220 221 222 225 229 231 233 234 236 238 240 242 242 243 244 244 244 246 247 248 247 246 247 249 252 255 257 259 259 256 254 257 261 264 264 265 266 267 268 271 273 277 281 282 282 282 285 291 296 291 276 270 272 274 266 261 281 297 305 311 316 322 326 328 332 334 334 336 339 343 347 348 347 345 342 339
208 210 210 211 213 214 215 217 218 219 220 221 224 227 230 232 233 235 237 240 242 243 244 245 246 246 248 250 251 250 249 249 249 251 254 257 259 259 258 258 259 261 262 262 264 267 269 271 272 274 274 277 279 279 280 280 282 287 288 279 274 274 274 272 269 277 293 302 308 312 318 323 324 326 329 330 331 334 339 344 347 347 345 342 338
208 209 210 211 213 215 215 217 218 219 220 221 223 225 228 230 232 234 236 239 241 244 246 247 247 247 249 252 253 251 251 250 250 251 252 255 257 259 260 260 261 262 262 263 264 266 269 272 275 276 276 276 277 277 277 278 279 280 282 280 279 280 280 279 274 274 287 298 304 308 313 318 318 319 323 325 326 330 334 340 345 346 346 345 340
208 208 209 211 213 214 215 217 217 218 220 222 224 225 226 227 229 232 234 237 240 243 246 247 247 247 248 250 252 252 251 251 251 251 251 253 255 257 259 260 262 264 264 265 266 266 268 272 275 278 277 277 277 275 274 276 278 279 278 278 279 283 285 284 281 280 284 291 298 303 309 312 313 316 320 321 323 327 331 336 341 344 346 348 344
208 208 209 211 212 214 215 216 217 218 221 223 225 226 226 226 228 230 232 235 238 240 243 244 245 246 247 249 250 251 252 251 251 252 253 255 256 257 259 260 262 264 265 267 267 267 268 272 275 277 275 274 273 272 273 274 277 278 277 276 277 282 286 285 284 284 284 286 293 300 305 307 309 313 317 319 322 327 330 334 338 343 346 347 346
208 208 209 210 212 214 215 216 217 219 221 223 225 227 226 226 227 229 231 232 235 237 239 240 242 244 247 249 250 252 252 252 252 253 254 256 257 259 260 261 262 263 264 265 266 267 268 270 274 275 272 271 270 270 270 271 273 275 276 277 279 282 285 285 283 283 283 285 290 295 300 303 306 309 313 318 320 324 328 330 334 342 345 343 344
208 208 210 211 213 214 215 217 218 220 222 224 225 226 226 227 227 228 230 231 232 234 236 238 240 242 245 247 249 251 252 252 252 253 254 255 257 259 260 261 263 263 264 265 265 265 266 268 270 271 270 270 270 270 270 270 271 272 274 277 280 282 283 283 282 280 281 284 287 290 295 299 301 303 308 313 316 320 326 327 328 335 341 341 340
208 209 210 211 214 215 217 218 219 220 222 223 225 226 226 227 227 227 228 230 231 232 234 236 238 240 242 245 247 249 250 251 252 252 253 255 256 257 258 260 261 263 264 265 264 264 265 266 268 269 269 270 270 271 270 270 270 270 272 275 278 279 281 281 281 280 279 281 283 287 291 293 295 298 304 309 312 316 323 321 320 326 334 335 336
207 208 209 212 215 216 217 218 220 221 222 223 224 225 226 227 227 227 228 229 231 232 233 235 236 237 239 241 244 246 248 250 251 252 253 254 254 255 256 257 259 261 262 263 263 264 264 265 267 268 269 271 271 272 271 270 269 269 271 273 274 275 276 278 279 279 278 277 280 285 287 289 292 296 300 305 307 311 315 314 314 320 327 329 332
207 208 210 213 215 216 217 218 219 220 220 222 224 225 226 227 227 227 228 229 230 231 232 233 234 235 237 239 241 242 245 248 251 253 254 254 254 254 254 255 256 257 258 259 261 262 264 265 267 269 270 271 272 272 272 271 270 270 272 273 272 270 270 272 274 275 275 273 277 281 282 285 289 292 296 302 306 306 308 309 310 315 322 325 328
207 209 211 214 215 215 216 216 217 219 220 221 222 224 225 225 226 227 228 229 230 230 231 232 234 235 236 237 239 240 242 246 249 252 253 253 253 252 252 254 254 254 255 256 257 260 262 264 266 268 268 269 271 272 272 272 272 272 273 273 271 270 268 267 269 271 270 269 273 276 275 279 287 291 293 299 303 302 303 305 305 307 314 318 317
208 211 213 214 214 214 214 215 216 217 219 220 221 222 223 224 225 226 228 229 230 229 230 232 234 236 236 237 238 239 241 245 247 250 252 253 252 251 251 252 252 252 253 253 255 258 259 262 264 266 267 268 270 271 271 272 272 272 273 273 272 271 268 266 266 267 267 266 268 271 271 275 283 288 291 296 299 299 299 299 296 297 301 301 299
210 211 213 213 214 214 214 214 215 217 218 219 220 221 221 222 224 225 227 229 229 229 230 232 234 236 236 237 238 240 242 244 246 247 250 252 252 250 249 249 250 251 251 252 254 255 256 258 260 263 265 267 268 268 269 270 271 272 272 272 272 271 270 267 266 265 265 264 263 267 272 274 277 285 292 295 295 294 292 291 290 289 291 292 294
218 214 213 213 213 213 213 213 214 217 218 219 219 219 220 222 223 225 226 227 227 228 230 231 233 234 235 237 238 240 242 243 244 245 247 250 251 249 248 248 248 250 250 251 253 254 255 256 257 260 263 264 265 266 268 270 270 271 271 271 272 274 273 272 270 267 265 263 261 266 273 275 276 285 293 293 290 289 287 286 286 285 286 289 292
255 226 220 217 214 212 212 213 214 216 217 217 217 218 220 221 223 225 225 226 227 229 230 230 232 233 235 236 238 240 242 243 243 244 245 247 248 248 247 246 246 247 250 251 252 253 255 256 256 259 261 263 265 266 267 268 269 268 269 270 273 275 276 276 276 274 273 271 269 272 278 280 281 287 292 292 289 289 287 285 284 283 285 288 288
7 336 290 257 230 218 214 213 214 216 216 215 216 218 219 222 223 224 224 226 228 230 231 232 232 233 235 235 236 239 243 243 242 242 244 245 245 244 244 244 244 245 248 250 251 253 254 254 255 257 260 262 265 266 267 267 266 265 266 269 272 275 277 278 278 278 278 278 278 280 281 283 284 286 289 289 287 288 286 282 279 278 280 283 283
21 9 345 326 294 258 236 223 217 216 216 215 216 218 220 222 223 223 223 225 227 229 231 233 234 235 235 235 236 239 242 243 242 242 243 242 240 239 240 241 242 243 246 248 249 251 253 253 253 255 257 260 264 266 266 263 261 261 264 267 270 273 276 279 279 279 279 280 281 283 283 283 284 284 284 284 284 283 278 273 275 275 271 271 275
23 9 339 313 293 280 265 246 233 224 219 218 218 220 221 222 223 223 223 225 227 229 231 232 234 235 236 236 236 239 242 244 243 242 242 241 238 237 237 237 238 241 244 247 248 249 252 254 254 253 255 259 264 265 264 260 258 258 260 262 265 269 274 278 278 279 280 281 282 282 282 283 283 284 284 283 282 278 269 269 275 273 262 259 265
14 3 346 331 316 295 273 257 243 232 225 223 223 222 223 224 224 224 225 226 228 231 231 232 234 235 236 237 238 239 242 244 244 243 242 240 237 236 235 234 234 238 241 244 247 248 250 252 253 252 254 258 262 263 262 259 257 257 259 258 258 263 271 275 276 278 280 281 281 282 282 283 284 284 285 285 283 279 273 274 276 268 259 258 261
3 357 345 339 334 321 293 264 249 240 232 228 227 226 225 225 225 225 226 227 229 231 232 232 234 236 237 238 238 239 241 243 244 244 243 240 237 235 232 230 232 235 238 240 243 245 248 250 251 252 254 258 261 262 261 259 257 258 258 254 253 262 272 275 274 277 278 279 281 282 282 283 284 283 284 284 283 280 278 277 275 269 263 261 258
349 349 346 343 337 327 309 279 258 249 241 234 230 229 227 226 226 225 226 227 228 230 231 232 233 236 238 238 238 239 241 242 243 244 243 242 239 234 231 230 233 234 235 237 239 242 245 248 250 253 255 257 260 261 260 259 259 257 256 256 259 267 273 273 273 275 275 276 278 279 279 280 281 280 280 280 279 277 275 272 270 269 266 263 260
339 341 345 341 335 330 320 298 271 253 247 240 233 229 228 226 226 226 226 226 227 229 231 231 233 236 238 238 238 239 241 242 243 244 243 242 240 236 233 234 235 234 233 234 237 240 243 246 250 254 257 258 260 261 261 261 259 257 259 262 266 270 270 270 271 271 270 271 272 273 274 275 276 277 278 278 276 275 272 269 268 269 268 266 265
332 331 333 330 326 328 322 308 289 263 249 244 237 231 229 226 225 225 225 225 225 227 229 230 232 235 237 238 238 239 241 241 242 243 243 243 242 239 237 238 237 235 232 234 237 241 244 246 250 255 257 258 260 262 262 261 260 260 263 266 267 268 267 266 266 266 266 267 267 267 269 271 272 274 275 276 277 277 275 272 271 270 269 267 266
325 321 318 318 321 324 317 303 291 274 254 247 242 235 230 227 225 225 224 224 224 225 227 228 229 232 235 237 238 239 239 240 241 242 242 242 242 241 240 240 239 236 235 236 239 242 244 247 251 255 257 258 261 262 263 263 261 263 266 268 269 267 264 262 262 263 263 262 262 263 266 268 269 271 273 276 279 280 278 275 272 270 268 266 265
321 318 312 309 310 309 299 289 286 281 266 252 245 238 232 227 225 225 224 224 224 225 226 227 228 230 232 234 236 237 237 238 239 240 242 242 242 242 242 241 240 238 237 238 240 243 246 249 252 256 258 259 260 260 261 261 262 263 266 268 268 266 263 262 262 261 259 259 260 261 264 268 270 272 275 277 278 277 275 271 268 264 261 260 260
318 315 308 304 301 295 286 284 286 289 286 269 252 242 234 228 225 224 224 224 225 226 226 226 227 230 232 233 235 236 236 237 237 238 239 240 241 242 242 243 241 240 240 241 243 245 248 250 251 253 255 256 256 257 258 260 261 262 264 264 264 264 264 263 262 258 257 258 259 260 265 270 272 274 275 275 272 270 269 267 264 261 258 255 254
313 309 302 300 299 295 290 287 286 286 288 283 266 247 237 231 227 225 223 223 224 225 225 226 227 228 232 234 234 233 234 235 236 236 236 236 238 240 240 241 240 238 238 240 241 243 246 247 247 248 250 252 253 254 256 258 259 259 260 260 261 262 263 264 262 259 258 260 262 264 268 271 271 271 271 269 266 268 267 262 259 259 258 254 250
307 304 298 296 296 296 295 292 287 283 284 284 275 256 241 232 227 226 224 222 222 222 222 223 225 227 230 231 230 229 231 232 233 233 231 231 233 235 236 237 236 235 236 238 239 240 242 242 243 244 245 246 247 248 250 251 253 255 257 258 260 262 262 262 261 259 260 261 263 265 267 268 267 268 267 263 262 265 264 258 255 255 255 252 247
303 300 295 292 292 294 294 291 287 284 283 283 279 270 255 240 232 230 230 228 226 224 222 221 224 226 228 228 226 223 224 230 234 234 232 231 232 233 234 235 235 235 237 239 237 236 236 236 237 239 239 239 240 242 245 248 250 252 253 255 258 260 260 259 258 259 261 262 261 262 264 263 264 265 261 257 259 262 261 256 254 253 251 247 243
297 294 292 291 291 292 292 289 287 285 283 282 283 283 276 260 244 237 236 235 233 232 229 228 229 228 227 227 227 226 228 235 240 238 234 233 235 236 237 239 239 239 240 238 233 230 231 231 232 233 234 234 235 237 240 244 247 249 250 252 254 256 257 257 256 257 259 259 260 262 263 263 264 263 258 252 255 259 261 259 258 255 248 240 237
292 289 290 289 288 289 288 287 288 288 286 286 288 289 288 278 259 246 241 239 238 237 236 236 236 233 230 230 231 232 235 241 243 240 236 235 237 238 240 242 242 243 242 236 228 224 227 229 229 231 231 231 233 235 238 241 244 245 247 249 250 250 250 250 252 253 253 252 253 258 264 270 272 271 266 260 258 259 260 259 256 250 242 234 231
294 292 292 289 288 287 286 286 289 291 292 292 292 290 289 285 273 257 246 241 240 240 240 240 240 238 235 235 235 236 238 241 242 240 240 239 239 239 240 242 243 243 240 233 225 223 225 225 226 228 229 229 231 234 237 239 240 241 241 241 242 245 247 250 254 254 252 249 248 250 255 261 266 270 270 265 260 256 255 252 247 241 235 229 229
296 296 297 297 296 294 291 291 293 293 294 295 294 293 290 286 279 266 253 244 241 240 241 241 241 240 239 238 238 239 241 243 242 240 239 240 241 241 242 242 241 240 234 226 221 223 225 224 225 226 227 228 230 233 236 238 238 237 238 239 240 245 249 253 257 257 255 253 252 250 247 246 250 259 265 263 256 252 250 248 242 234 228 226 229
296 296 298 301 300 297 295 295 294 294 295 296 293 291 290 287 282 272 259 246 240 240 240 240 240 240 240 239 239 240 241 243 243 241 240 240 241 241 240 238 236 233 229 225 222 223 224 224 224 226 227 227 229 232 235 236 234 234 240 242 242 244 248 251 254 256 255 255 254 252 249 244 241 246 255 259 256 250 245 242 237 229 225 226 229
296 296 300 302 301 298 296 294 292 291 293 292 288 286 285 285 284 274 260 247 240 240 241 241 240 239 240 240 241 241 240 239 240 240 240 239 237 235 232 230 228 226 225 224 223 224 225 225 225 226 226 227 228 231 233 233 232 235 239 240 239 241 245 249 254 254 252 251 253 254 253 250 247 245 249 252 252 246 239 236 234 230 224 224 231
302 301 304 306 304 300 297 293 287 284 287 287 282 279 278 279 281 278 267 253 245 242 245 245 244 242 242 242 242 241 240 238 237 237 237 235 231 226 223 223 224 224 223 224 223 223 225 227 227 227 227 227 230 232 233 232 233 235 235 233 235 239 243 247 251 250 247 249 254 256 253 251 250 247 244 244 245 245 241 239 237 234 227 223 229
306 305 307 308 307 303 299 293 286 281 284 283 276 273 274 275 278 281 276 263 251 247 248 249 247 245 244 244 242 241 239 238 236 235 233 229 225 224 223 223 224 223 224 225 224 223 224 227 228 228 228 228 230 232 233 233 233 231 229 230 236 240 243 246 247 246 247 251 255 256 254 251 250 248 244 242 242 242 240 237 238 237 231 227 229
302 302 304 305 304 302 298 292 286 283 285 281 270 265 268 272 275 278 278 271 261 255 253 251 246 243 244 245 243 239 236 233 229 228 227 224 222 222 223 224 224 224 225 226 225 223 224 228 228 227 228 229 231 232 233 232 230 227 226 230 236 241 245 246 243 241 243 247 250 252 254 254 254 252 247 243 241 239 236 234 236 237 233 229 228
299 300 302 304 303 301 298 294 288 285 287 288 277 267 264 266 267 269 272 272 267 261 257 253 248 246 245 244 241 233 227 223 222 222 222 222 222 223 224 224 225 226 227 227 227 226 227 228 228 227 228 228 229 231 232 230 229 227 227 229 233 237 240 240 238 235 234 238 245 251 253 253 254 253 249 244 243 241 237 234 234 232 227 224 223
300 300 303 306 306 304 302 298 292 290 294 302 301 288 273 267 265 264 265 268 269 265 261 256 253 253 252 246 239 230 222 219 221 223 223 222 222 223 223 224 225 226 227 227 227 229 229 229 227 227 228 228 228 230 232 231 229 227 227 227 231 235 237 235 232 231 234 241 248 250 250 251 253 252 248 245 245 245 240 234 231 228 223 223 225
301 301 303 307 309 308 305 301 300 304 308 312 318 317 303 288 279 271 264 263 264 264 263 260 258 258 258 252 244 236 228 224 225 227 227 226 225 224 224 224 225 225 225 224 223 223 223 222 221 222 224 225 225 226 228 226 222 221 223 225 227 229 231 230 232 237 242 247 247 246 247 249 250 248 243 238 236 235 229 222 222 222 222 225 225
302 302 304 309 312 312 310 308 310 317 326 336 345 345 333 321 312 294 274 265 263 261 261 258 257 259 260 257 252 244 236 232 232 232 230 228 226 225 224 223 222 221 218 214 210 208 206 204 205 206 208 210 211 213 217 217 215 216 221 223 221 219 220 225 235 244 248 247 245 245 245 244 238 232 227 222 218 214 206 196 196 202 208 214 215
303 303 307 312 315 317 318 319 322 334 354 12 20 26 28 24 18 14 4 330 302 289 281 266 257 261 260 254 246 238 231 228 228 226 223 219 216 214 212 207 204 205 203 198 194 194 193 190 187 189 194 198 200 202 208 212 212 216 222 222 216 213 215 217 224 233 238 239 239 237 231 221 209 197 186 179 179 176 167 161 166 172 181 193 201
309 311 312 314 318 325 334 339 341 352 22 43 46 46 51 56 59 64 66 67 64 63 66 74 82 87 96 172 215 219 217 212 204 192 182 174 162 150 146 151 158 166 170 170 169 170 173 174 173 174 177 178 177 182 191 195 194 200 207 203 194 189 189 186 186 193 205 206 193 171 162 163 161 154 145 142 147 148 143 144 151 156 161 175 191
330 329 327 329 331 337 352 7 9 16 41 59 60 57 56 60 66 71 71 70 69 70 70 73 77 79 79 79 76 70 66 69 83 97 104 105 103 102 106 112 118 123 129 134 139 143 147 149 148 146 144 144 147 156 163 161 157 163 169 168 164 160 155 150 145 141 146 152 144 136 139 145 144 139 134 132 135 136 131 131 137 139 145 172 196
353 354 355 359 1 1 12 27 32 37 50 59 61 60 60 61 69 75 77 77 76 74 71 70 72 72 72 72 71 69 68 67 70 78 88 97 102 105 110 114 117 116 115 116 120 124 127 127 126 122 120 121 126 132 134 132 132 136 138 138 137 133 127 124 123 123 128 134 132 131 138 144 143 141 140 141 143 146 143 138 136 133 135 144 152
34 37 32 29 33 36 38 45 50 52 56 59 60 60 60 63 70 76 78 80 81 79 76 73 72 71 70 71 71 73 74 76 76 80 89 100 107 110 112 114 116 115 111 108 108 111 114 116 116 115 113 113 114 115 114 112 112 115 116 114 114 114 114 115 116 118 122 126 127 132 138 138 134 133 134 132 131 132 129 126 124 123 122 121 117
65 65 59 52 51 51 53 57 62 62 60 61 62 61 60 64 71 75 77 78 79 79 78 77 75 74 73 73 74 76 79 82 82 83 85 92 100 106 108 109 109 110 108 105 102 101 103 106 108 109 109 109 107 107 107 107 107 109 109 108 107 108 110 112 113 115 118 121 123 126 127 124 120 119 119 118 119 120 119 117 117 115 112 110 106
78 83 77 67 64 65 67 68 70 69 68 68 68 66 65 67 70 73 76 77 77 76 78 79 78 78 78 77 76 77 80 81 81 80 77 77 83 90 95 98 102 105 107 107 106 104 103 103 103 103 104 104 104 102 102 102 102 103 104 106 106 106 104 104 105 107 110 113 114 114 114 112 111 110 110 111 113 113 112 111 110 107 104 101 97
87 90 90 83 78 76 75 75 76 76 75 75 74 72 70 71 72 72 74 76 77 77 79 80 80 80 80 79 78 77 78 78 78 76 73 71 76 80 81 81 87 95 99 102 104 105 104 103 103 102 101 100 100 100 100 100 100 101 102 103 104 104 103 102 102 103 106 108 110 111 112 111 109 107 105 104 104 103 100 99 97 94 91 88 84
92 91 92 91 86 82 79 77 77 77 77 79 79 78 76 76 76 76 76 78 79 80 81 82 82 81 80 79 78 78 78 79 81 81 77 72 74 78 77 70 70 80 87 91 96 99 99 99 99 99 98 96 95 96 97 98 99 100 101 101 102 102 101 101 100 101 104 108 109 110 109 108 105 102 99 96 95 94 91 89 88 87 85 85 84